AO-07 1 07530U 74089B 25287.99579832 -.00000031 00000-0 96215-4 0 9991 2 07530 101.9988 293.6375 0011943 238.7296 146.6491 12.53692406329792 UO-11 1 14781U 84021B 25287.89766325 .00002225 00000-0 23734-3 0 9999 2 14781 97.7714 251.8827 0006064 278.2859 81.7671 14.89838249220592 AO-27 1 22825U 93061C 25287.90967750 .00000177 00000-0 84375-4 0 9991 2 22825 98.7228 350.0139 0009516 99.4017 260.8242 14.30844877671924 FO-29 1 24278U 96046B 25287.92146013 -.00000012 00000-0 24213-4 0 9998 2 24278 98.5528 164.9350 0350234 12.7659 348.2074 13.53256711439993 NOAA-15 1 25338U 98030A 25287.86300313 .00000220 00000-0 10803-3 0 9998 2 25338 98.5288 309.8962 0010016 353.2043 6.9001 14.27035351426300 GO-32 1 25397U 98043D 25287.91073700 .00000144 00000-0 82244-4 0 9994 2 25397 98.9866 269.7794 0001266 154.3055 205.8186 14.24352058416416 ISS 1 25544U 98067A 25288.29939280 .00010825 00000-0 20343-3 0 9998 2 25544 51.6325 71.7910 0004132 294.0373 66.0183 15.49128438533793 NO-44 1 26931U 01043C 25287.92119080 .00000223 00000-0 11434-3 0 9996 2 26931 67.0499 158.5809 0007117 273.5108 86.5180 14.31805186255339 SO-50 1 27607U 02058C 25287.09471503 .00002044 00000-0 26473-3 0 9995 2 27607 64.5527 169.8955 0068322 307.7794 51.7135 14.82077969227976 CO-55 1 27844U 03031E 25287.92499196 .00000488 00000-0 23099-3 0 9991 2 27844 98.6789 294.5804 0009721 171.2673 188.8677 14.24105509156763 CO-57 1 27848U 03031J 25287.79286520 .00000418 00000-0 20337-3 0 9990 2 27848 98.6817 294.3583 0009250 189.4174 170.6833 14.23424515156465 RS-22 1 27939U 03042A 25287.96214531 .00001811 00000-0 29192-3 0 9991 2 27939 98.3378 100.6105 0010839 331.5985 180.5128 14.72716427179449 CO-58 1 28895U 05043F 25287.83546542 .00002713 00000-0 44472-3 0 9992 2 28895 98.2678 73.9495 0013322 263.1107 96.8583 14.71531685 65654 CO-65 1 32785U 08021C 25287.92302910 .00007228 00000-0 49992-3 0 9991 2 32785 97.8020 260.2482 0011141 131.8718 228.3461 15.05966143948236 CO-66 1 32791U 08021J 25287.93635808 .00018048 00000-0 78115-3 0 9995 2 32791 97.7410 271.1976 0006487 89.1545 271.0434 15.22468467949842 RS-30 1 32953U 08025A 25287.88067890 .00000006 00000-0 -27974-4 0 9997 2 32953 82.5025 148.0342 0019679 125.3707 234.9215 12.43169291789216 NOAA-19 1 33591U 09005A 25287.91050210 .00000068 00000-0 60388-4 0 9990 2 33591 98.9842 353.2507 0013784 8.5662 351.5743 14.13417861859835 SRMSAT 1 37841U 11058D 25287.86318781 .00000483 00000-0 11882-3 0 9992 2 37841 19.9712 104.2757 0011787 25.1155 107.3172 14.11480602723115 ZACUBE-1 1 39417U 13066B 25287.83419342 .00008453 00000-0 70581-3 0 9992 2 39417 97.7957 244.3656 0042316 350.3760 9.6647 14.98098361643958 Delfi-N3xt 1 39428U 13066N 25287.28804398 .00011427 00000-0 11072-2 0 9996 2 39428 97.8281 203.6177 0079881 303.8261 55.5370 14.90466798637932 GOMX-1 1 39430U 13066Q 25287.89016845 .00002823 00000-0 43718-3 0 9991 2 39430 97.6673 138.6939 0131943 144.2072 216.8067 14.68208785633909 LO-74 1 39440U 13066AA 25287.90299847 .00005073 00000-0 49967-3 0 9991 2 39440 97.8602 231.7255 0062257 118.7085 242.0410 14.91046602640401 AO-73 1 39444U 13066AE 25287.75754876 .00011069 00000-0 78158-3 0 9992 2 39444 97.7982 250.4045 0038344 320.2535 39.5883 15.04507930642697 DTUSAT-2 1 40030U 14033W 25287.93133771 .00009812 00000-0 60212-3 0 9990 2 40030 98.0707 266.1687 0008725 6.1522 353.9811 15.10313346615609 EO-80 1 40032U 14033Y 25287.87845789 .00009242 00000-0 56642-3 0 9993 2 40032 98.0588 265.5905 0006127 298.9098 61.1515 15.10396041615575 LILACSAT-2 1 40908U 15049K 25288.00060265 .00016648 00000-0 38738-3 0 9991 2 40908 97.5000 311.6553 0010284 68.4733 291.7609 15.42325346557842 IO-86 1 40931U 15052B 25151.18580175 .00001241 00000-0 78118-4 0 9996 2 40931 6.0006 24.0987 0012733 338.8432 21.1169 14.78805930523159 Horyu-4 1 41340U 16012D 25287.52926828 .00037976 00000-0 79538-3 0 9995 2 41340 30.9964 354.4700 0003273 313.1955 46.8419 15.44181499532378 Lapan A3 1 41603U 16040E 25287.94505708 .00004594 00000-0 15616-3 0 9991 2 41603 97.1433 287.6676 0011197 163.8149 196.3452 15.30878435517261 CAS-2T 1 41847U 16066G 25287.93394728 .00002691 00000-0 38696-3 0 9995 2 41847 98.4094 1.2478 0345310 152.9343 209.0329 14.43885314469392 CAS-4B 1 42759U 17034B 25286.97241530 .03437790 89859-5 10544-2 0 9999 2 42759 42.9888 273.3261 0008257 129.3938 230.7682 16.25684504462550 CAS-4A 1 42761U 17034D 25281.34159269 .04203186 90411-5 12507-2 0 9993 2 42761 42.9927 303.5081 0008135 81.2710 278.9099 16.26032227461692 TechnoSat 1 42829U 17042E 25287.87831766 .00005890 00000-0 44398-3 0 9992 2 42829 97.4002 90.6606 0018183 210.5928 149.4239 15.02696837449831 AO-91 1 43017U 17073E 25287.18842383 .00012226 00000-0 59250-3 0 9991 2 43017 97.5024 154.7976 0167523 94.4234 267.6154 15.07071376428263 S-Net D 1 43186U 18014G 25287.85878670 .00007029 00000-0 39806-3 0 9996 2 43186 97.5481 189.4705 0010045 136.4182 223.7845 15.13292212421610 S-Net B 1 43187U 18014H 25287.66754981 .00007148 00000-0 40499-3 0 9996 2 43187 97.5483 189.2587 0010763 133.6833 226.5292 15.13265587421586 S-Net A 1 43188U 18014J 25287.85872291 .00007019 00000-0 39736-3 0 9992 2 43188 97.5495 189.6157 0010737 133.5350 226.6775 15.13297554421611 S-Net C 1 43189U 18014K 25287.27354874 .00008209 00000-0 46440-3 0 9993 2 43189 97.5503 189.0720 0012370 130.3907 229.8406 15.13253942420078 Ten-Koh 1 43677U 18084G 25287.93504505 .00003230 00000-0 25620-3 0 9999 2 43677 98.0728 105.2370 0008749 191.9650 168.1367 15.01261274379347 PO-101 1 43678U 18084H 25287.98554625 .00003977 00000-0 33338-3 0 9996 2 43678 98.1073 109.0820 0007351 207.7122 152.3709 14.98994003379468 QO-100 1 43700U 18090A 25287.91978128 .00000130 00000-0 00000-0 0 9995 2 43700 0.0127 249.4818 0002050 357.1732 133.9932 1.00271989 25214 MinXSS-2 1 43758U 18099A 25287.85969555 .00024854 00000-0 83870-3 0 9992 2 43758 97.4881 354.5789 0011468 71.2951 288.9534 15.30625343376403 AO-95 1 43770U 18099N 25287.90835416 .00013458 00000-0 62768-3 0 9991 2 43770 97.4771 344.6846 0011318 125.7477 234.4812 15.19926653375871 SNUSat 2 1 43782U 18099AA 25287.90652151 .00010224 00000-0 52303-3 0 9999 2 43782 97.4452 340.3564 0012858 75.4688 284.7971 15.16754645375786 SnugLite 1 43784U 18099AC 25287.90985760 .00012945 00000-0 59843-3 0 9994 2 43784 97.4264 340.2187 0004674 80.8795 279.2969 15.20287976375964 ITASat 1 1 43786U 18099AE 25287.13829294 .00009399 00000-0 50855-3 0 9993 2 43786 97.4425 338.7186 0015268 125.4454 234.8206 15.14765802375609 EAGLET 1 1 43790U 18099AJ 25287.88650460 .00006209 00000-0 38232-3 0 9999 2 43790 97.4621 338.9425 0013246 110.5028 249.7625 15.10271581375271 ESEO 1 43792U 18099AL 25287.10897719 .00002414 00000-0 18266-3 0 9995 2 43792 97.4345 329.7102 0014906 92.4982 267.7950 15.03143442374824 JO-97 1 43803U 18099AX 25287.84747528 .00016889 00000-0 69312-3 0 9990 2 43803 97.4515 345.9409 0008043 66.4774 293.7308 15.24269690376130 Suomi 100 1 43804U 18099AY 25287.88890170 .00013421 00000-0 60249-3 0 9996 2 43804 97.4581 344.8708 0012878 68.2589 292.0016 15.21225265376033 ISAT 1 43879U 18111D 25287.50155224 .00033511 00000-0 94612-3 0 9999 2 43879 97.5870 205.1079 0010972 102.6909 257.5562 15.36245285373139 UWE-4 1 43880U 18111E 25287.86598484 .00024862 00000-0 83918-3 0 9995 2 43880 97.5814 202.9498 0013310 114.9746 245.2878 15.30595725373060 Sparrow 1 43881U 18111F 25287.30185942 .00038552 00000-0 10296-2 0 9995 2 43881 97.6042 208.3276 0008505 126.0226 234.1808 15.37965784373216 Prox-1 1 44339U 19036A 25287.74089579 .00013470 00000-0 15858-2 0 9999 2 44339 23.9970 304.8534 0007425 90.7000 269.4348 14.82999960336898 Taurus 1 1 44530U 19059C 25287.89857381 .00008404 00000-0 14819-2 0 9994 2 44530 98.6204 73.5865 0008723 0.5721 359.5490 14.67750435322606 Duchifat 3 1 44854U 19089C 25287.27054608 .00157419 00000-0 15255-2 0 9995 2 44854 36.9349 261.6749 0008854 225.5920 134.4118 15.64905060322720 TO-108 1 44881U 19093C 25287.91616247 .00001540 00000-0 18254-3 0 9990 2 44881 97.7819 0.8518 0013982 167.8968 192.2586 14.85897882314986 FloripaSat 1 1 44885U 19093G 25287.90067223 .00007704 00000-0 62173-3 0 9994 2 44885 97.8087 15.8536 0010790 151.1649 209.0173 15.00099057315829 RS-44 1 44909U 19096E 25287.59743929 .00000010 00000-0 -43538-5 0 9993 2 44909 82.5200 142.9137 0217578 358.8817 1.1769 12.79744424270931 UPMSat 2 1 46276U 20061E 25284.11510829 .12115553 24945-5 13983-3 0 9991 2 46276 97.2106 5.1352 0012001 257.8540 102.1421 16.49625583285008 SALSAT 1 46495U 20068K 25287.89415187 .00010348 00000-0 41847-3 0 9994 2 46495 97.8751 272.0709 0013142 82.1156 278.1571 15.24853085277916 CSS (TIANHE-1) 1 48274U 21035A 25287.93726295 .00036646 00000-0 41303-3 0 9992 2 48274 41.4663 14.0323 0003242 245.1350 114.9152 15.61793105254849 TUBIN 1 48900U 21059X 25287.94427689 .00117120 00000-0 71515-3 0 9995 2 48900 97.6747 108.8484 0001863 125.8424 234.3014 15.77042294239989 LEDSAT 1 49069U 21073D 25287.40691402 .05492225 24633-5 10676-2 0 9995 2 49069 97.3511 16.8494 0010427 280.4637 79.5483 16.31639997231390 CUTE 1 49263U 21088D 25287.87196079 .00026587 00000-0 41633-3 0 9992 2 49263 97.4397 8.2974 0007037 124.4540 235.7379 15.53688167224141 TeikyoSat 4 1 49396U 21102B 25287.36443835 .00003253 00000-0 21353-3 0 9997 2 49396 97.3992 321.1805 0013918 62.8349 297.4297 15.08241418215659 Z-Sat 1 49399U 21102E 25287.90153257 .00005766 00000-0 30560-3 0 9997 2 49399 97.3679 325.6180 0018272 27.7273 332.4930 15.15619054216257 KOSEN 1 1 49402U 21102H 25287.10789524 .00009126 00000-0 39864-3 0 9996 2 49402 97.3570 329.2662 0015013 2.7340 357.3975 15.22230807216523 HO-113 1 50466U 21131B 25287.97846656 .00000870 00000-0 28435-3 0 9994 2 50466 98.5073 16.6963 0005250 111.4340 248.7409 14.40989818199793 SNUGLITE 2 1 52899U 22065F 25287.87572515 .00001896 00000-0 37414-3 0 9998 2 52899 98.1872 68.7705 0008635 76.9579 283.2586 14.63584382175100 UmKA 1 (RS40S) 1 57172U 23091G 25287.92712715 .00006986 00000-0 35618-3 0 9990 2 57172 97.5433 342.6666 0012437 251.0895 108.8990 15.17007236126775 CubeBel-2 (EU11S) 1 57175U 23091K 25287.91717920 .00012996 00000-0 57077-3 0 9996 2 57175 97.5432 344.6591 0010073 255.2587 104.7533 15.22017346126906 ENSO 1 58470U 23185J 25286.99676613 .00315332 00000-0 14127-2 0 9997 2 58470 97.3538 7.7888 0004942 287.2111 72.8618 15.83344704104804 SONATE-2 1 59112U 24043Q 25287.89665146 .00026159 00000-0 63418-3 0 9998 2 59112 97.5289 62.1586 0009852 21.8271 338.3393 15.40998606 89909 MO-122 1 60209U 24125G 25287.80634019 .00028623 00000-0 67626-3 0 9997 2 60209 97.2622 138.3158 0017743 43.1925 317.0711 15.41639280 71515 GRBBeta 1 60237U 24128C 25287.45997854 .00005489 00000-0 39720-3 0 9990 2 60237 61.9926 356.7985 0056942 84.0912 276.6666 15.03931265 69274 Curium One 1 60242U 24128H 25287.91840425 .00008362 00000-0 54364-3 0 9992 2 60242 61.9820 351.3555 0056621 80.6545 280.0944 15.07389281 69418 ROBUSTA-3A 1 60243U 24128J 25287.49994973 .00008325 00000-0 55014-3 0 9996 2 60243 61.9896 354.1127 0056502 78.0684 282.6736 15.06798549 69339 CatSat 1 60246U 24125J 25287.52573119 .00028720 00000-0 81667-3 0 9999 2 60246 97.2436 135.7430 0038024 3.6898 356.4618 15.35370845 69420 HYPERVIEW-1G (RS66S) 1 61772U 24199AP 25287.92704333 .00034595 00000-0 80685-3 0 9999 2 61772 97.3302 156.8634 0014017 93.1199 267.1653 15.42053942 96535 AO-123 1 61781U 24199AY 25287.91952808 .00009678 00000-0 33071-3 0 9991 2 61781 97.3330 154.0607 0017043 103.6959 256.6181 15.30353674 96349 ZIMSAT 2 1 61783U 24199BA 25287.93298138 .00093173 00000-0 14128-2 0 9998 2 61783 97.3235 158.8963 0012868 86.5249 273.7477 15.54209859 99828 HADES-R (SO-124) 1 62690U 25009CK 25287.87434160 .00080520 00000-0 18580-2 0 9995 2 62690 97.3974 9.0271 0001590 326.0032 34.1113 15.42256826 41665 HYDRA-T 1 62692U 25009CM 25287.89248029 .00085841 00000-0 19376-2 0 9991 2 62692 97.3973 9.1549 0001708 310.1875 49.9223 15.42895913 41678 JINJUSat 1B 1 63210U 25052A 25287.81051516 .00016377 00000-0 67679-3 0 9999 2 63210 97.4225 180.4432 0002114 201.2382 158.8768 15.24068938 32601 NUSHSAT 1 1 63211U 25052B 25287.64161337 .00018298 00000-0 74120-3 0 9997 2 63211 97.4215 180.3339 0001765 208.9943 151.1197 15.24718815 32589 TEVEL2-4 1 63213U 25052D 25287.94847347 .00017919 00000-0 73632-3 0 9990 2 63213 97.4131 180.3042 0000580 237.4298 122.6884 15.24241860 32625 TEVEL2-5 1 63214U 25052E 25287.88598020 .00017473 00000-0 71924-3 0 9992 2 63214 97.4132 180.2357 0000573 239.8477 120.2703 15.24189260 32610 TEVEL2-6 1 63215U 25052F 25287.23495821 .00017143 00000-0 70705-3 0 9997 2 63215 97.4133 179.5824 0000559 244.8610 115.2569 15.24125799 32511 TEVEL2-1 1 63217U 25052H 25287.79131493 .00018085 00000-0 75138-3 0 9993 2 63217 97.4106 179.9908 0001005 306.2958 53.8187 15.23867349 32599 TEVEL2-3 1 63218U 25052J 25287.79116824 .00018241 00000-0 75752-3 0 9991 2 63218 97.4108 179.9939 0001054 308.4156 51.6986 15.23880313 32593 TEVEL2-2 1 63219U 25052K 25287.79207939 .00018020 00000-0 74874-3 0 9999 2 63219 97.4107 179.9917 0001039 306.7339 53.3802 15.23865207 32597 TEVEL2-9 1 63237U 25052AD 25287.63436255 .00016507 00000-0 71405-3 0 9992 2 63237 97.4169 179.6194 0005377 303.3775 56.6946 15.22506456 32542 TEVEL2-7 1 63238U 25052AE 25287.64326097 .00016018 00000-0 69526-3 0 9994 2 63238 97.4174 179.6128 0005464 303.1702 56.9010 15.22397238 32542 TEVEL2-8 1 63239U 25052AF 25287.64783305 .00016493 00000-0 71637-3 0 9997 2 63239 97.4173 179.6047 0005524 303.3539 56.7168 15.22367606 32547 HYDRA-W 1 63490U 25052BL 25287.43871014 .00053772 00000-0 17167-2 0 9996 2 63490 97.4107 180.7929 0006125 295.7320 64.3290 15.32281740 32619 HADES-ICM (SO-125) 1 63492U 25052BN 25287.44268133 .00049191 00000-0 16243-2 0 9995 2 63492 97.4116 180.6528 0006797 300.4489 59.6081 15.31215611 32607